{"data":{"norad_id":64750,"intl_designator":"2025-144AC","name":"STARLINK-34531","alt_names":[],"object_type":"PAYLOAD","status":"ACTIVE","operator":null,"country":"US","launch_date":"2025-07-02","launch_site_code":"AFETR","launch_vehicle":null,"mission":null,"orbit_class":"UNKNOWN","rcs_meters":null,"size_class":null,"mass_kg":null,"dimensions":null,"purposes":["comms"],"wikipedia_slug":null,"has_3d_model":false,"image_url":null,"decayed_at":null,"tle_current":{"epoch":"2026-05-24T20:23:32.179200Z","epoch_age_seconds":81998,"freshness":"FRESH","line1":"1 64750U 25144AC  26144.84967800  .00012970  00000+0  44927-3 0  9994","line2":"2 64750  53.1586 187.1856 0001226  85.5935 274.5206 15.30200596 51377","mean_motion":15.30200596,"eccentricity":0.0001226,"inclination_deg":53.1586,"raan_deg":187.1856,"arg_perigee_deg":85.5935,"mean_anomaly_deg":274.5206,"bstar":0.00044927,"rev_number":5137,"period_min":94.105309053219,"perigee_km":474.37306912579,"apogee_km":476.05351061687,"semimajor_km":6853.3502898713,"source":"CELESTRAK","updated_at":"2026-05-25T13:38:20.551527Z"}}}